Location: Crni Vrh Observatory
(45.9460°N, 14.0712°E)
Time: 08:15:09
(UTC+01:00)

Tiangong 2 - Visible Passes

Search period start: 24 January 2018 00:00
Search period end: 03 February 2018 00:00
Orbit: 384 x 390 km, 42.8° (Epoch: 23 January)

Date Brightness Start Highest point End Pass type
(mag) Time Alt. Az. Time Alt. Az. Time Alt. Az.
24 Jan 1.8 05:36:49 46° S 05:36:49 46° S 05:39:48 10° ESE visible
25 Jan 4.6 04:40:47 12° E 04:40:47 12° E 04:41:05 10° E visible
25 Jan 1.9 06:13:03 23° WSW 06:14:35 42° S 06:17:38 10° ESE visible
26 Jan 2.8 05:17:01 31° SE 05:17:01 31° SE 05:19:00 10° ESE visible
26 Jan 2.7 06:49:40 10° WSW 06:52:23 25° SSW 06:55:04 10° SE visible
27 Jan 2.1 05:53:15 31° SW 05:53:45 33° SSW 05:56:40 10° SE visible
28 Jan 3.9 04:57:13 17° SE 04:57:13 17° SE 04:58:07 10° ESE visible
28 Jan 3.2 06:29:29 11° WSW 06:31:25 17° SSW 06:33:38 10° SSE visible
29 Jan 2.9 05:33:30 23° S 05:33:30 23° S 05:35:29 10° SE visible
30 Jan 3.6 06:09:49 11° SW 06:10:22 11° SSW 06:11:20 10° SSW visible
31 Jan 4.1 05:13:56 10° SSE 05:13:56 10° SSE 05:13:58 10° SSE visible
